Montpelier, VT

5:53 PM EDT on July 20, 2017 (GMT -0400)
Knapp State

Weather History for KMPV - December, 2011

Change the Weather History Date:

Friday, December 9, 2011

  Actual Average Record
Temperature  
Mean Temperature 32 °F 26 °F  
Max Temperature 35 °F 34 °F 60 °F (1966)
Min Temperature 28 °F 17 °F -16 °F (1989)
Degree Days  
Heating Degree Days 33 39  
Month to date heating degree days 280 339  
Since 1 July heating degree days 1688 2185  
Cooling Degree Days 0 0  
Month to date cooling degree days 0  
Year to date cooling degree days 264  
Moisture  
Dew Point 25 °F    
Average Humidity 71    
Maximum Humidity 78    
Minimum Humidity 63    
Precipitation  
Precipitation T in 0.10 in 1.16 in (2014)
Month to date precipitation 0.69 0.90  
Year to date precipitation 51.89 35.43  
Sea Level Pressure  
Sea Level Pressure 30.24 in    
Wind  
Wind Speed 8 mph (South)    
Max Wind Speed 15 mph    
Max Gust Speed 21 mph    
Visibility 10 miles    
Events      
T = Trace of Precipitation, MM = Missing Value Source: NWS Daily Summary

Daily Weather History Graph

Daily Weather History Graph

Search for Another Location

Airport or City:

Trip Planner

Search our weather history database for the weather conditions in past years. The results will help you decide how hot, cold, wet, or windy it might be!

Date:

Astronomy

Dec. 09, 2011 Rise Set
Actual Time 7:13 AM EST 4:11 PM EST
Civil Twilight 6:40 AM EST 4:44 PM EST
Nautical Twilight 6:04 AM EST 5:20 PM EST
Astronomical Twilight 5:28 AM EST 5:55 PM EST
Moon 3:32 PM EST (12/9) 6:18 AM EST (12/9)
Length of Visible Light 10h 03m
Length of Day
8h 57m
Waxing Gibbous, 99% of the Moon is Illuminated
Dec 9
Waxing Gibbous
Dec 10
Full
Dec 17
Last Quarter
Dec 24
New
Jan 1
First Quarter

Hourly Weather History & Observations

Time (EST) Temp. Windchill Dew Point Humidity Pressure Visibility Wind Dir Wind Speed Gust Speed Precip Events Conditions
12:51 AM 32.0 °F 24.2 °F 21.9 °F 66% 30.22 in 10.0 mi South 9.2 mph - N/A   Overcast
1:51 AM 32.0 °F 24.2 °F 21.9 °F 66% 30.24 in 10.0 mi South 9.2 mph - N/A   Overcast
2:51 AM 30.9 °F 23.5 °F 21.9 °F 69% 30.26 in 10.0 mi South 8.1 mph - N/A   Mostly Cloudy
3:51 AM 32.0 °F 27.5 °F 21.0 °F 64% 30.26 in 10.0 mi South 4.6 mph - N/A   Overcast
4:51 AM 30.9 °F 24.3 °F 21.0 °F 67% 30.26 in 10.0 mi South 6.9 mph - N/A   Overcast
5:51 AM 28.9 °F 22.8 °F 21.9 °F 75% 30.28 in 10.0 mi SW 5.8 mph - N/A   Clear
6:51 AM 28.0 °F 22.8 °F 21.9 °F 78% 30.28 in 10.0 mi SSE 4.6 mph - N/A   Mostly Cloudy
7:51 AM 30.0 °F 21.1 °F 23.0 °F 75% 30.30 in 10.0 mi South 10.4 mph - N/A   Overcast
8:51 AM 30.0 °F - 24.1 °F 79% 30.30 in 10.0 mi Calm Calm - N/A   Overcast
9:51 AM 32.0 °F 25.6 °F 24.1 °F 73% 30.31 in 10.0 mi SW 6.9 mph - N/A   Overcast
10:51 AM 32.0 °F 23.0 °F 26.1 °F 79% 30.29 in 10.0 mi SSE 11.5 mph - 0.00 in   Overcast
11:51 AM 33.1 °F 25.5 °F 26.1 °F 75% 30.26 in 10.0 mi South 9.2 mph - N/A   Overcast
12:51 PM 35.1 °F 26.4 °F 25.0 °F 67% 30.23 in 10.0 mi South 12.7 mph - N/A   Overcast
1:51 PM 35.1 °F 27.9 °F 26.1 °F 70% 30.21 in 10.0 mi South 9.2 mph - N/A   Overcast
2:51 PM 35.1 °F 26.4 °F 26.1 °F 70% 30.20 in 10.0 mi South 12.7 mph - N/A   Overcast
3:51 PM 34.0 °F 27.2 °F 26.1 °F 73% 30.20 in 10.0 mi South 8.1 mph - N/A   Overcast
4:51 PM 34.0 °F 29.8 °F 25.0 °F 70% 30.21 in 10.0 mi South 4.6 mph - N/A   Overcast
5:51 PM 33.1 °F 26.1 °F 26.1 °F 75% 30.22 in 10.0 mi SSE 8.1 mph - N/A   Mostly Cloudy
6:51 PM 34.0 °F 28.0 °F 26.1 °F 73% 30.22 in 10.0 mi South 6.9 mph - N/A   Scattered Clouds
7:51 PM 34.0 °F 26.0 °F 26.1 °F 73% 30.22 in 10.0 mi SSE 10.4 mph - N/A   Partly Cloudy
8:51 PM 34.0 °F 29.8 °F 26.1 °F 73% 30.22 in 10.0 mi Variable 4.6 mph - N/A   Clear
9:51 PM 34.0 °F 26.6 °F 27.0 °F 75% 30.21 in 10.0 mi South 9.2 mph - N/A   Mostly Cloudy
10:51 PM 34.0 °F 26.6 °F 27.0 °F 75% 30.21 in 10.0 mi SSE 9.2 mph - N/A   Overcast
11:51 PM 33.1 °F 23.9 °F 28.0 °F 82% 30.20 in 10.0 mi SSE 12.7 mph - N/A   Overcast